Location: Sternwarte_Laufen
(47.9344°N, 12.9346°E)
Time: 15:37:24
(UTC+02:00)

ISS - Pass Details

Date: 08 May 2026
Orbit: 414 x 424 km, 51.6° (Epoch: 21 May)

Event Time Altitude Azimuth Distance (km) Brightness Sun altitude
Rises 22:27:37 0° 234° (SW) 2,341 0.1 -15.9°
Reaches altitude 10° 22:29:42 10° 230° (SW) 1,482 -1.0 -16.2°
Maximum altitude 22:32:59 58° 151° (SSE) 490 -3.8 -16.5°
Enters shadow 22:34:59 21° 77° (ENE) 987 -2.1 -16.7°
